Погода в Демянске

Поиск расширенной информации на нашем сайте:

Полезная информация:

Новости сайта



02.01.2020
Опубликован Долгосрочный прогноз погоды по городам России и ближнего зарубежья на январь 2020 года.
Карты: Прогноз на январь и февраль 2020 года, Сравнение прогнозируемой аномалии приземной температуры воздуха на январь 2020 года по разным моделям.




Погода в Демянске - сегодня

Время (UTC), дата Ветер
(°,м/с) 
Видим.   Явления Облачность Т
(°С)
Тd
(°С)
f(%) Тe
(°С)
Pmin
(гПа)
dP
(гПа)
Po
(мм)
O2
(г/м3)
Тmin Tmax R s Состояние
почвы
12 29.11.20 090 (В) н/о    н/о 
+0.9 -0.8 88 1025.6  -1.1  763  307           
15 29.11.20 100 (В) н/о    н/о 
+1.4 -0.1 90 1024.9  -0.7  763  306      0.5     
18 29.11.20 090 (В) 4000 м  слаб. ливневой снег  10/10 270 м кучево-дожд. 
[Cb calv]
+0.8 -0.1 94 1024.3  -0.6  762  306    +1.5  0.9     
21 29.11.20 100 (В) н/о    н/о 
+1.5 +0.6 94 1023.9  -0.4  762  305           
00 30.11.20 120 (ЮВ) н/о    н/о 
+1.7 +0.7 93 +1  1024  0.1  762  305           
03 30.11.20 120 (ЮВ) н/о    н/о 
+1.5 +0.6 94 +2  1024  762  305  +0.7       
06 30.11.20 100 (В) 50000 м    10/6 300 м кучево-дожд., средняя 
[Cb calv|Ac As]
+1 -0.2 92 +2  1024.2  0.2  762  306  +0.7    0.6     
09 30.11.20 090 (В) н/о    н/о 
+1.7 +0.8 94 +2  1023.9  -0.3  762  305           
12 30.11.20 тихо ()   н/о    н/о 
+1.3 +0.3 93 +1  1023.2  -0.7  762  305           
15 30.11.20 180 (Ю) н/о    н/о 
+0.5 -2.1 83 +1  1023.4  0.2  762  307      0.2     
18 30.11.20 160 (Ю) 50000 м    8/8 1000 м 
[Sc]
-0.4 -2.6 85 1023.9  0.5  762  308    +2  0.1     
21 30.11.20 150 (ЮВ) н/о    н/о 
-0.2 -2.8 83 -1  1024.1  0.2  762  308           
00 01.12.20 180 (Ю) н/о    н/о 
+0.4 -2.3 82 1024.1  762  307           
03 01.12.20 180 (Ю) н/о    н/о 
+0.4 -2 84 1024.9  0.8  763  307  -1.3         
06 01.12.20 180 (Ю) 50000 м    10/10 1230 м 
[Sc]
+0.1 -2.7 81 -1  1026.4  1.5  764  308  -1.3    0.0  <0.5  равномерный
сухой снег
100% 
09 01.12.20 200 (Ю) н/о    н/о 
+0.5 -2.4 81 1028  1.6  765  308           
12 01.12.20 230 (ЮЗ) н/о    н/о 
+0.7 -2.4 80 1029.3  1.2  766  308           
15 01.12.20 180 (Ю) н/о    н/о 
+0.3 -3 78 +1  1031.1  1.8  767  309           
21 01.12.20 190 (Ю) н/о    н/о 
-0.3 -3.3 80 1033.4  1.1  769  311           
00 02.12.20 200 (Ю) н/о    н/о 
-0.4 -3.3 81 1034.3  0.9  770  311           
03 02.12.20 210 (ЮЗ) н/о    н/о 
-0.5 -3.2 82 1034.4  0.1  770  311  -0.5         
06 02.12.20 210 (ЮЗ) 50000 м    10/10 600 м 
[Sc]
-0.7 -3.4 82 1035  0.6  770  312  -0.7         
09 02.12.20 190 (Ю) н/о    н/о 
-1.1 -3.8 82 -2  1035.5  0.4  771  312           
12 02.12.20 110 (В) н/о    н/о 
-0.9 -4.2 78 1034.6  -0.8  770  312           
15 02.12.20 110 (В) н/о    н/о 
-3.6 -5.3 88 -5  1034.1  -0.6  770  315           
Время (UTC), дата Ветер
(°,м/с) 
Видим.   Явления Облачность Т
(°С)
Тd
(°С)
f(%) Тe
(°С)
Pmin
(гПа)
dP
(гПа)
Po
(мм)
O2
(г/м3)
Тmin Tmax R s Состояние
почвы

Для получения пояснительной информации подведите курсор к названию столбца.

ПОГОДА в Демянске - архив

Всё, что Вы хотите узнать о погоде в Демянске - удобно и подробно!

Выберите нужную дату (начиная с 1 января 2019* года) и нажмите кнопку "Найти".
Будут отображены архивные сводки погоды по пункту Демянск, начиная с указанной даты.


Отображать данные в формате CSV (для использования в таблицах Excel)


Внимание! Наш архив погоды предназначен исключительно для личного некоммерческого использования в познавательных целях. Если Вам необходимы официальные справки о состоянии погоды (для производственных, юридических, коммерческих и т.п. целей), обращайтесь в органы Росгидромета.

*Примечание: данная дата относится к архиву по метеостанциям СССР (Россия, СНГ, Балтия).
Архив по метеостанциям Зарубежной Европы и Азии (кроме Китая) хранится 10 дней, по другим регионам земного шара (Китай, Африка, Америка, Австралия, Океания) - 1 день.

Демянск - район местоположения метеостанции


Название, широта, долгота, высота метеостанции:
Демянск 57.6°ш. 32.5°д. 62 м над ур. моря [Российская Федерация]

Дополнительная информация

В oтличие oт бoльшинства пoгoдных сайтoв мы публикуем пoдрoбную метеoинфoрмацию в детальнoм прoфессиoнальнoм фoрмате.

Характеристики температуры и влажнoсти вoздуха измеряются на высoте 2 м в тени вдали oт зданий и деревьев.
Скoрoсть ветра измеряется на высoте 10 м (на урoвне рoста челoвека скoрoсть ветра ниже в 1.5-2 раза). Если метеoстанция нахoдится в гoрoде или в лесу, тo скoрoсть ветра занижена на 2-4 м/с пo сравнению с oткрытым местoм. Скoрoсть ветра над акватoриями крупных рек и oзёр, а также на вершинах хoлмoв на 2-5 м/с выше, чем в oбычных услoвиях.
Атмoсфернoе давление в разных тoчках местнoсти мoжет значительнo oтличаться oт давления на метеoстанции, в зависимoсти oт услoвий рельефа (при пoдъёме на 10 м давление пoнижается примернo на 1 мм рт.ст.).